Date String (YYYY-MM-DD hh:mm:ss) UTC,Instrument flags,Ambient pressure (hPa),Sample flow (lpm),Bypass flow (lpm),Sample temperature (°C),Ambient temperature (°C),ASC tube jacket temperature (°C),LED temperature (°C),Box temperature (°C),Sample RH (%),Span deviation,Mass concentration (μg/m³),Mass concentration (μg/m³),Mass concentration (μg/m³)
DateTimeUTC,F1_M11,P_M11,Q1_M11,Q2_M11,T1_M11,T2_M11,T3_M11,T4_M11,T5_M11,U1_M11,ZSPAN_M11,X0_M11,X2_M11,X1_M11
2022-07-20 06:00:00,,0828.5,4.99,0.00,29.4,28.0,00.0,38.1,31.3,25.2,0000.0,0012.57,0005.55,0004.23
2022-07-20 06:01:00,,0828.4,5.01,0.00,29.4,28.1,00.0,38.1,31.4,24.5,0000.0,0012.60,0005.54,0004.20
2022-07-20 06:02:00,,0828.4,4.99,0.00,29.4,28.3,00.0,38.1,31.4,25.7,0000.0,0012.37,0005.49,0004.18
2022-07-20 06:03:00,,0828.5,5.00,0.00,29.5,28.4,00.0,38.1,31.5,26.4,0000.0,0012.33,0005.46,0004.17
2022-07-20 06:04:00,,0828.5,5.00,0.00,29.5,28.5,00.0,38.2,31.5,25.8,0000.0,0011.91,0005.45,0004.14
2022-07-20 06:05:00,,0828.4,5.00,0.00,29.5,28.3,00.0,38.1,31.5,27.2,0000.0,0011.26,0005.41,0004.15
2022-07-20 06:06:00,,0828.3,5.01,0.00,29.5,27.5,00.0,38.1,31.4,28.4,0000.0,0011.83,0005.48,0004.16
2022-07-20 06:07:00,,0828.4,5.00,0.00,29.5,26.9,00.0,38.1,31.3,29.1,0000.0,0012.64,0005.61,0004.21
2022-07-20 06:08:00,,0828.3,4.99,0.00,29.4,26.9,00.0,38.1,31.2,29.4,0000.0,0013.39,0005.78,0004.25
2022-07-20 06:09:00,,0828.4,5.01,0.00,29.4,27.0,00.0,38.1,31.1,29.3,0000.0,0013.66,0005.88,0004.29
2022-07-20 06:10:00,,0828.4,5.00,0.00,29.3,27.1,00.0,38.1,31.1,29.1,0000.0,0014.30,0006.04,0004.36
2022-07-20 06:11:00,,0828.5,5.00,0.00,29.3,27.3,00.0,38.1,31.1,28.5,0000.0,0014.70,0006.14,0004.41
2022-07-20 06:12:00,,0828.4,4.99,0.00,29.3,27.5,00.0,38.1,31.2,28.8,0000.0,0014.85,0006.23,0004.48
2022-07-20 06:13:00,,0828.4,5.00,0.00,29.3,27.7,00.0,38.1,31.2,27.7,0000.0,0015.57,0006.29,0004.52
2022-07-20 06:14:00,,0828.5,5.00,0.00,29.3,27.9,00.0,38.1,31.3,28.2,0000.0,0016.16,0006.35,0004.55
2022-07-20 06:15:00,,0828.5,5.00,0.00,29.4,28.0,00.0,38.1,31.3,27.9,0000.0,0016.36,0006.38,0004.59
2022-07-20 06:16:00,,0828.5,5.00,0.00,29.4,28.2,00.0,38.1,31.4,27.0,0000.0,0017.04,0006.38,0004.59
2022-07-20 06:17:00,,0828.4,5.00,0.00,29.4,28.3,00.0,38.1,31.4,26.7,0000.0,0016.23,0006.30,0004.57
2022-07-20 06:18:00,,0828.4,5.00,0.00,29.5,28.4,00.0,38.2,31.5,26.3,0000.0,0015.39,0006.19,0004.55
2022-07-20 06:19:00,,0828.4,5.00,0.00,29.5,28.5,00.0,38.2,31.5,26.2,0000.0,0014.59,0006.01,0004.51
2022-07-20 06:20:00,,0828.5,4.99,0.00,29.5,28.3,00.0,38.2,31.6,26.5,0000.0,0014.45,0005.89,0004.48
2022-07-20 06:21:00,,0828.4,5.00,0.00,29.5,27.5,00.0,38.1,31.4,25.4,0000.0,0014.30,0005.80,0004.44
2022-07-20 06:22:00,,0828.4,5.00,0.00,29.5,27.0,00.0,38.1,31.3,24.9,0000.0,0014.26,0005.74,0004.39
2022-07-20 06:23:00,,0828.5,5.00,0.00,29.4,26.9,00.0,38.1,31.2,24.0,0000.0,0013.33,0005.61,0004.32
2022-07-20 06:24:00,,0828.5,5.00,0.00,29.3,27.0,00.0,38.1,31.1,24.2,0000.0,0012.45,0005.50,0004.26
2022-07-20 06:25:00,,0828.4,4.99,0.00,29.3,27.1,00.0,38.1,31.1,25.5,0000.0,0011.87,0005.42,0004.21
2022-07-20 06:26:00,,0828.5,5.00,0.00,29.3,27.3,00.0,38.1,31.1,26.0,0000.0,0011.99,0005.40,0004.19
2022-07-20 06:27:00,,0828.5,5.00,0.00,29.3,27.5,00.0,38.1,31.2,26.9,0000.0,0011.93,0005.42,0004.19
2022-07-20 06:28:00,,0828.5,5.00,0.00,29.3,27.7,00.0,38.1,31.2,28.3,0000.0,0012.59,0005.50,0004.21
2022-07-20 06:29:00,,0828.4,5.00,0.00,29.3,27.9,00.0,38.1,31.3,29.2,0000.0,0013.45,0005.64,0004.27
2022-07-20 06:30:00,,0828.5,4.99,0.00,29.4,28.0,00.0,38.1,31.3,28.9,0000.0,0014.72,0005.74,0004.32
2022-07-20 06:31:00,,0828.5,5.00,0.00,29.4,28.2,00.0,38.1,31.4,29.5,0000.0,0015.20,0005.88,0004.38
2022-07-20 06:32:00,,0828.5,4.99,0.00,29.4,28.3,00.0,38.1,31.4,29.5,0000.0,0016.59,0006.05,0004.46
2022-07-20 06:33:00,,0828.5,5.02,0.00,29.5,28.4,00.0,38.1,31.4,29.2,0000.0,0017.69,0006.22,0004.55
2022-07-20 06:34:00,,0828.5,4.99,0.00,29.5,28.5,00.0,38.2,31.5,29.3,0000.0,0018.24,0006.40,0004.64
2022-07-20 06:35:00,,0828.5,4.99,0.00,29.5,28.6,00.0,38.2,31.6,29.4,0000.0,0018.75,0006.59,0004.75
2022-07-20 06:36:00,,0828.6,5.00,0.00,29.6,28.4,00.0,38.2,31.6,29.3,0000.0,0019.45,0006.78,0004.88
2022-07-20 06:37:00,,0828.5,5.01,0.00,29.6,27.6,00.0,38.1,31.4,29.4,0000.0,0019.96,0006.95,0004.99
2022-07-20 06:38:00,,0828.5,4.99,0.00,29.5,27.1,00.0,38.1,31.3,29.5,0000.0,0020.38,0007.10,0005.07
2022-07-20 06:39:00,,0828.5,5.01,0.00,29.5,27.0,00.0,38.1,31.2,29.6,0000.0,0020.78,0007.21,0005.15
2022-07-20 06:40:00,,0828.4,5.00,0.00,29.4,27.0,00.0,38.1,31.1,29.7,0000.0,0020.70,0007.23,0005.19
2022-07-20 06:41:00,,0828.7,4.99,0.00,29.3,27.2,00.0,38.1,31.1,29.2,0000.0,0020.30,0007.27,0005.24
2022-07-20 06:42:00,,0829.0,5.02,0.00,29.3,27.4,00.0,38.1,31.2,29.1,0000.0,0020.09,0007.29,0005.26
2022-07-20 06:43:00,,0829.1,5.00,0.00,29.3,27.5,00.0,38.1,31.2,29.6,0000.0,0018.83,0007.25,0005.28
2022-07-20 06:44:00,,0829.0,5.00,0.00,29.3,27.7,00.0,38.1,31.2,29.7,0000.0,0017.26,0007.20,0005.32
2022-07-20 06:45:00,,0828.9,5.00,0.00,29.4,27.9,00.0,38.1,31.3,29.7,0000.0,0017.63,0007.30,0005.37
2022-07-20 06:46:00,,0828.7,5.00,0.00,29.4,28.0,00.0,38.1,31.3,29.6,0000.0,0018.53,0007.37,0005.42
2022-07-20 06:47:00,,0828.9,5.00,0.00,29.4,28.2,00.0,38.2,31.4,29.6,0000.0,0019.75,0007.37,0005.43
2022-07-20 06:48:00,,0828.9,5.01,0.00,29.4,28.3,00.0,38.2,31.4,29.5,0000.0,0019.54,0007.38,0005.44
2022-07-20 06:49:00,,0828.9,4.99,0.00,29.5,28.4,00.0,38.2,31.5,29.3,0000.0,0019.03,0007.33,0005.45
2022-07-20 06:50:00,,0829.1,5.01,0.00,29.5,28.5,00.0,38.2,31.5,29.3,0000.0,0020.09,0007.34,0005.47
2022-07-20 06:51:00,,0829.0,5.00,0.00,29.6,28.6,00.0,38.2,31.6,29.3,0000.0,0020.95,0007.43,0005.49
2022-07-20 06:52:00,,0828.8,4.99,0.00,29.6,28.6,00.0,38.2,31.6,29.1,0000.0,0021.41,0007.56,0005.52
2022-07-20 06:53:00,,0829.0,5.00,0.00,29.6,28.0,00.0,38.2,31.6,29.0,0000.0,0022.45,0007.61,0005.54
2022-07-20 06:54:00,,0828.6,5.01,0.00,29.6,27.3,00.0,38.1,31.4,29.0,0000.0,0023.95,0007.69,0005.56
2022-07-20 06:55:00,,0828.9,5.00,0.00,29.5,26.9,00.0,38.1,31.3,29.0,0000.0,0024.71,0007.79,0005.58
2022-07-20 06:56:00,,0829.0,5.00,0.00,29.4,26.9,00.0,38.1,31.2,29.2,0000.0,0025.23,0007.74,0005.57
2022-07-20 06:57:00,,0828.9,5.01,0.00,29.4,27.0,00.0,38.1,31.1,29.2,0000.0,0025.13,0007.67,0005.57
2022-07-20 06:58:00,,0829.0,5.00,0.00,29.3,27.2,00.0,38.1,31.2,29.2,0000.0,0024.11,0007.73,0005.57
2022-07-20 06:59:00,,0829.0,5.00,0.00,29.3,27.4,00.0,38.1,31.2,29.2,0000.0,0024.03,0007.74,0005.58
